Regional Weather Roundup
Issued by NWS

Home | Current Version | Previous Version | Text Only | Print | Product List | Glossary On
Versions: 1 2 3 4 5 6 7 8 9 10 11 12 13 14 15 16 17 18 19 20 21 22 23 24 25 26 27 28 29 30 31 32 33 34 35 36 37 38 39 40 41 42 43 44 45 46 47 48 49 50
236
ASUS44 KBMX 282010
RWRAL

ALABAMA REGIONAL WEATHER ROUNDUP
NATIONAL WEATHER SERVICE BIRMINGHAM AL
300 PM CDT FRI APR 28 2017

NOTE: "FAIR" INDICATES FEW OR NO CLOUDS BELOW 12,000 FEET
WITH NO SIGNIFICANT WEATHER AND/OR OBSTRUCTIONS TO VISIBILITY.

THE REMARK "TC" DENOTES TEMPERATURE IN DEGREES CELSIUS.

ALZ001>011-014-016>018-020-282100-
NORTH ALABAMA

CITY           SKY/WX    TMP DP  RH WIND       PRES   REMARKS
MUSCLE SHOALS  PTSUNNY   82  68  62 S14G23    29.89F
HUNTSVILLE     CLOUDY    84  69  60 S16G24    29.91F
DECATUR        CLOUDY    80  70  71 S14       29.91F
HALEYVILLE     CLOUDY    82  69  64 S14G22    29.92F
GADSDEN        PTSUNNY  N/A N/A N/A S12G20    29.96F
$$

ALZ012-013-022-023-030>036-040>044-282100-
WEST CENTRAL ALABAMA

CITY           SKY/WX    TMP DP  RH WIND       PRES   REMARKS
TUSCALOOSA     MOSUNNY   88  68  51 S17G32    29.90F HX  91
$$

ALZ015-024>027-033>036-040>044-282100-
CENTRAL ALABAMA

CITY           SKY/WX    TMP DP  RH WIND       PRES   REMARKS
BIRMINGHAM     MOSUNNY   88  66  48 S14G31    29.97F HX  90
MONTGOMERY     MOSUNNY   89  67  47 S13       29.97F HX  92
SHELBY CO ARPT MOSUNNY   87  70  56 S15G23    29.95F HX  92
MAXWELL AFB    PTSUNNY   88  69  53 S10       29.96F HX  91
GREENVILLE     PTSUNNY   87  67  51 S12G20    29.97F HX  90
$$

ALZ019-021-028-029-037-038-045>048-282100-
EAST CENTRAL ALABAMA

CITY           SKY/WX    TMP DP  RH WIND       PRES   REMARKS
ANNISTON       PTSUNNY   85  67  54 S9G20     29.98F
ALEXANDER CITY SUNNY     84  67  55 S10       30.01S
AUBURN         PTSUNNY   84  68  58 S15       30.03F
$$

ALZ051>064-282100-
SOUTHWEST ALABAMA

CITY           SKY/WX    TMP DP  RH WIND       PRES   REMARKS
MOBILE         CLOUDY    82  72  71 S14       29.97S
BROOKLEY FIELD CLOUDY    80  77  90 SE13G21   29.98F
EVERGREEN      MOSUNNY   87  69  54 S16G24    29.98S HX  91
$$

ALZ049-050-065>069-282100-
SOUTHEAST ALABAMA

CITY           SKY/WX    TMP DP  RH WIND       PRES   REMARKS
DOTHAN         CLOUDY    89  69  51 SW17      30.04F HX  93
OZARK          CLOUDY    90  68  48 S15G22    30.00F HX  93
TROY           PTSUNNY   87  69  54 S13       30.00F HX  91
EUFAULA        FAIR      90  68  48 S10G17    29.99F HX  94
$$




USA.gov is the U.S. government's official web portal to all federal, state and local government web resources and services.